Time,TemperatureF,DewpointF,PressureIn,WindDirection,WindDirectionDegrees,WindSpeedMPH,WindSpeedGustMPH,Humidity,HourlyPrecipIn,Conditions,Clouds,dailyrainin,SoftwareType,DateUTC
2013-03-01 00:03:00,60.1,51.8,29.88,North,-999,-999.0,-999.0,74,0.00,,,0.00,WSDL version 420,2013-03-01 05:03:00,
2013-03-01 00:08:00,60.1,51.8,29.88,North,-999,-999.0,-999.0,74,0.00,,,0.00,WSDL version 420,2013-03-01 05:08:00,
2013-03-01 00:13:00,60.1,51.8,29.88,North,-999,-999.0,-999.0,74,0.00,,,0.00,WSDL version 420,2013-03-01 05:13:00,
2013-03-01 00:18:00,60.1,51.8,29.88,North,-999,-999.0,-999.0,74,0.00,,,0.00,WSDL version 420,2013-03-01 05:18:00,
2013-03-01 00:23:00,60.3,52.3,29.88,North,-999,-999.0,-999.0,75,0.00,,,0.00,WSDL version 420,2013-03-01 05:23:00,
2013-03-01 00:28:00,60.4,52.5,29.88,North,-999,-999.0,-999.0,75,0.00,,,0.00,WSDL version 420,2013-03-01 05:28:00,
2013-03-01 00:33:00,60.3,52.3,29.88,North,-999,-999.0,-999.0,75,0.00,,,0.00,WSDL version 420,2013-03-01 05:33:00,
2013-03-01 00:38:00,60.4,52.3,29.85,North,-999,-999.0,-999.0,75,0.00,,,0.00,WSDL version 420,2013-03-01 05:38:00,
2013-03-01 00:43:00,60.4,52.1,29.85,North,-999,-999.0,-999.0,74,0.00,,,0.00,WSDL version 420,2013-03-01 05:43:00,
2013-03-01 00:48:00,60.4,52.1,29.85,North,-999,-999.0,-999.0,74,0.00,,,0.00,WSDL version 420,2013-03-01 05:48:00,
2013-03-01 00:53:00,60.6,52.5,29.85,North,-999,-999.0,-999.0,75,0.00,,,0.00,WSDL version 420,2013-03-01 05:53:00,
2013-03-01 01:03:00,60.6,52.7,29.85,North,-999,-999.0,-999.0,75,0.00,,,0.00,WSDL version 420,2013-03-01 06:03:00,
2013-03-01 01:08:00,60.6,52.7,29.88,North,-999,-999.0,-999.0,75,0.00,,,0.00,WSDL version 420,2013-03-01 06:08:00,
2013-03-01 01:13:00,60.6,52.3,29.88,North,-999,-999.0,-999.0,74,0.00,,,0.00,WSDL version 420,2013-03-01 06:13:00,
2013-03-01 01:18:00,60.6,52.6,29.88,North,-999,-999.0,-999.0,75,0.00,,,0.00,WSDL version 420,2013-03-01 06:18:00,
2013-03-01 01:23:00,60.8,52.5,29.88,North,-999,-999.0,-999.0,74,0.00,,,0.00,WSDL version 420,2013-03-01 06:23:00,
2013-03-01 01:28:00,61.0,52.7,29.88,North,-999,-999.0,-999.0,74,0.00,,,0.00,WSDL version 420,2013-03-01 06:28:00,
2013-03-01 01:33:00,61.3,52.5,29.88,North,-999,-999.0,-999.0,73,0.00,,,0.00,WSDL version 420,2013-03-01 06:33:00,
2013-03-01 01:38:00,61.3,52.6,29.88,North,-999,-999.0,-999.0,73,0.00,,,0.00,WSDL version 420,2013-03-01 06:38:00,
2013-03-01 01:43:00,61.4,52.7,29.88,North,-999,-999.0,-999.0,73,0.00,,,0.00,WSDL version 420,2013-03-01 06:43:00,
2013-03-01 01:48:00,61.6,52.9,29.88,North,-999,-999.0,-999.0,73,0.00,,,0.00,WSDL version 420,2013-03-01 06:48:00,
2013-03-01 01:53:00,61.7,52.6,29.88,North,-999,-999.0,-999.0,72,0.00,,,0.00,WSDL version 420,2013-03-01 06:53:00,
2013-03-01 01:58:00,61.8,52.7,29.88,North,-999,-999.0,-999.0,72,0.00,,,0.00,WSDL version 420,2013-03-01 06:58:00,
2013-03-01 02:03:00,61.9,52.8,29.88,North,-999,-999.0,-999.0,72,0.00,,,0.00,WSDL version 420,2013-03-01 07:03:00,
2013-03-01 02:08:00,61.9,53.0,29.88,North,-999,-999.0,-999.0,73,0.00,,,0.00,WSDL version 420,2013-03-01 07:08:00,
2013-03-01 02:13:00,61.9,53.1,29.88,North,-999,-999.0,-999.0,73,0.00,,,0.00,WSDL version 420,2013-03-01 07:13:00,
2013-03-01 02:18:00,61.9,52.8,29.88,North,-999,-999.0,-999.0,72,0.00,,,0.00,WSDL version 420,2013-03-01 07:18:00,
2013-03-01 02:23:00,61.9,52.8,29.88,North,-999,-999.0,-999.0,72,0.00,,,0.00,WSDL version 420,2013-03-01 07:23:00,
2013-03-01 02:28:00,61.9,52.8,29.88,North,-999,-999.0,-999.0,72,0.00,,,0.00,WSDL version 420,2013-03-01 07:28:00,
2013-03-01 02:33:00,62.0,52.9,29.88,North,-999,-999.0,-999.0,72,0.00,,,0.00,WSDL version 420,2013-03-01 07:33:00,
2013-03-01 02:38:00,62.0,52.5,29.88,North,-999,-999.0,-999.0,71,0.00,,,0.00,WSDL version 420,2013-03-01 07:38:00,
2013-03-01 02:43:00,62.1,52.6,29.88,North,-999,-999.0,-999.0,71,0.00,,,0.00,WSDL version 420,2013-03-01 07:43:00,
2013-03-01 02:48:00,62.1,52.6,29.88,North,-999,-999.0,-999.0,71,0.00,,,0.00,WSDL version 420,2013-03-01 07:48:00,
2013-03-01 02:53:00,62.1,52.2,29.88,North,-999,-999.0,-999.0,70,0.00,,,0.00,WSDL version 420,2013-03-01 07:53:00,
2013-03-01 02:58:00,62.1,52.2,29.88,North,-999,-999.0,-999.0,70,0.00,,,0.00,WSDL version 420,2013-03-01 07:58:00,
2013-03-01 03:03:00,62.1,51.8,29.88,North,-999,-999.0,-999.0,69,0.00,,,0.00,WSDL version 420,2013-03-01 08:03:00,
2013-03-01 03:13:00,62.1,51.4,29.88,North,-999,-999.0,-999.0,68,0.00,,,0.00,WSDL version 420,2013-03-01 08:13:00,
2013-03-01 03:18:00,62.1,51.2,29.88,North,-999,-999.0,-999.0,67,0.00,,,0.00,WSDL version 420,2013-03-01 08:18:00,
2013-03-01 03:23:00,62.0,50.8,29.88,North,-999,-999.0,-999.0,66,0.00,,,0.00,WSDL version 420,2013-03-01 08:23:00,
2013-03-01 03:28:00,61.9,50.3,29.88,North,-999,-999.0,-999.0,65,0.00,,,0.00,WSDL version 420,2013-03-01 08:28:00,
2013-03-01 03:38:00,61.9,49.8,29.88,North,-999,-999.0,-999.0,64,0.00,,,0.00,WSDL version 420,2013-03-01 08:38:00,
2013-03-01 03:43:00,61.9,49.6,29.88,North,-999,-999.0,-999.0,64,0.00,,,0.00,WSDL version 420,2013-03-01 08:43:00,
2013-03-01 03:48:00,61.9,49.4,29.88,North,-999,-999.0,-999.0,64,0.00,,,0.00,WSDL version 420,2013-03-01 08:48:00,
2013-03-01 03:53:00,61.8,49.2,29.88,North,-999,-999.0,-999.0,63,0.00,,,0.00,WSDL version 420,2013-03-01 08:53:00,
2013-03-01 03:58:00,61.7,49.0,29.88,North,-999,-999.0,-999.0,63,0.00,,,0.00,WSDL version 420,2013-03-01 08:58:00,
2013-03-01 04:03:00,61.7,49.0,29.88,North,-999,-999.0,-999.0,63,0.00,,,0.00,WSDL version 420,2013-03-01 09:03:00,
2013-03-01 04:08:00,61.7,49.0,29.88,North,-999,-999.0,-999.0,63,0.00,,,0.00,WSDL version 420,2013-03-01 09:08:00,
2013-03-01 04:13:00,61.6,49.3,29.88,North,-999,-999.0,-999.0,64,0.00,,,0.00,WSDL version 420,2013-03-01 09:13:00,
2013-03-01 04:18:00,61.5,49.0,29.88,North,-999,-999.0,-999.0,63,0.00,,,0.00,WSDL version 420,2013-03-01 09:18:00,
2013-03-01 04:23:00,61.5,48.8,29.88,North,-999,-999.0,-999.0,63,0.00,,,0.00,WSDL version 420,2013-03-01 09:23:00,
2013-03-01 04:28:00,61.3,48.5,29.88,North,-999,-999.0,-999.0,63,0.00,,,0.00,WSDL version 420,2013-03-01 09:28:00,
2013-03-01 04:33:00,61.3,48.5,29.88,North,-999,-999.0,-999.0,62,0.00,,,0.00,WSDL version 420,2013-03-01 09:33:00,
2013-03-01 04:38:00,61.2,47.8,29.85,North,-999,-999.0,-999.0,61,0.00,,,0.00,WSDL version 420,2013-03-01 09:38:00,
2013-03-01 04:48:00,61.0,47.8,29.85,North,-999,-999.0,-999.0,61,0.00,,,0.00,WSDL version 420,2013-03-01 09:48:00,
2013-03-01 04:53:00,60.7,46.2,29.88,North,-999,-999.0,-999.0,57,0.00,,,0.00,WSDL version 420,2013-03-01 09:53:00,
2013-03-01 05:03:00,60.5,45.2,29.88,North,-999,-999.0,-999.0,58,0.00,,,0.00,WSDL version 420,2013-03-01 10:03:00,
2013-03-01 05:13:00,60.4,46.0,29.88,North,-999,-999.0,-999.0,59,0.00,,,0.00,WSDL version 420,2013-03-01 10:13:00,
2013-03-01 05:18:00,60.2,45.7,29.88,North,-999,-999.0,-999.0,59,0.00,,,0.00,WSDL version 420,2013-03-01 10:18:00,
2013-03-01 05:28:00,59.9,45.1,29.88,North,-999,-999.0,-999.0,58,0.00,,,0.00,WSDL version 420,2013-03-01 10:28:00,
2013-03-01 05:38:00,59.7,44.9,29.88,North,-999,-999.0,-999.0,58,0.00,,,0.00,WSDL version 420,2013-03-01 10:38:00,
2013-03-01 05:45:00,59.7,44.9,29.88,North,-999,-999.0,-999.0,58,0.00,,,0.00,WSDL version 420,2013-03-01 10:45:00,
2013-03-01 05:50:00,59.7,44.9,29.88,North,-999,-999.0,-999.0,58,0.00,,,0.00,WSDL version 420,2013-03-01 10:50:00,
2013-03-01 05:55:00,59.5,44.2,29.88,North,-999,-999.0,-999.0,56,0.00,,,0.00,WSDL version 420,2013-03-01 10:55:00,
2013-03-01 06:00:00,59.5,43.7,29.88,North,-999,-999.0,-999.0,56,0.00,,,0.00,WSDL version 420,2013-03-01 11:00:00,
2013-03-01 06:05:00,59.5,43.8,29.91,North,-999,-999.0,-999.0,56,0.00,,,0.00,WSDL version 420,2013-03-01 11:05:00,
2013-03-01 06:10:00,59.5,43.8,29.91,North,-999,-999.0,-999.0,56,0.00,,,0.00,WSDL version 420,2013-03-01 11:10:00,
2013-03-01 06:15:00,59.5,43.8,29.91,North,-999,-999.0,-999.0,56,0.00,,,0.00,WSDL version 420,2013-03-01 11:15:00,
2013-03-01 06:20:00,59.5,43.8,29.91,North,-999,-999.0,-999.0,56,0.00,,,0.00,WSDL version 420,2013-03-01 11:20:00,
2013-03-01 06:25:00,59.4,43.8,29.91,North,-999,-999.0,-999.0,57,0.00,,,0.00,WSDL version 420,2013-03-01 11:25:00,
2013-03-01 06:30:00,59.4,44.6,29.91,North,-999,-999.0,-999.0,58,0.00,,,0.00,WSDL version 420,2013-03-01 11:30:00,
2013-03-01 06:35:00,59.2,44.7,29.88,North,-999,-999.0,-999.0,59,0.00,,,0.00,WSDL version 420,2013-03-01 11:35:00,
2013-03-01 06:40:00,59.1,44.6,29.88,North,-999,-999.0,-999.0,58,0.00,,,0.00,WSDL version 420,2013-03-01 11:40:00,
2013-03-01 06:50:00,59.0,44.7,29.91,North,-999,-999.0,-999.0,59,0.00,,,0.00,WSDL version 420,2013-03-01 11:50:00,
2013-03-01 06:55:00,59.0,44.7,29.91,North,-999,-999.0,-999.0,59,0.00,,,0.00,WSDL version 420,2013-03-01 11:55:00,
2013-03-01 07:00:00,59.0,45.0,29.91,North,-999,-999.0,-999.0,60,0.00,,,0.00,WSDL version 420,2013-03-01 12:00:00,
2013-03-01 07:05:00,59.0,44.7,29.94,North,-999,-999.0,-999.0,59,0.00,,,0.00,WSDL version 420,2013-03-01 12:05:00,
2013-03-01 07:10:00,59.0,44.7,29.94,North,-999,-999.0,-999.0,59,0.00,,,0.00,WSDL version 420,2013-03-01 12:10:00,
2013-03-01 07:15:00,59.0,44.9,29.94,North,-999,-999.0,-999.0,60,0.00,,,0.00,WSDL version 420,2013-03-01 12:15:00,
2013-03-01 07:20:00,59.0,45.0,29.91,North,-999,-999.0,-999.0,59,0.00,,,0.00,WSDL version 420,2013-03-01 12:20:00,
2013-03-01 07:25:00,59.1,45.1,29.91,SSE,158,0.0,1.3,60,0.00,,,0.00,WSDL version 420,2013-03-01 12:25:00,
2013-03-01 07:30:00,59.1,45.1,29.91,SSE,158,0.0,1.3,59,0.00,,,0.00,WSDL version 420,2013-03-01 12:30:00,
2013-03-01 07:35:00,59.2,45.1,29.94,SSW,203,0.0,1.3,60,0.00,,,0.00,WSDL version 420,2013-03-01 12:35:00,
2013-03-01 07:40:00,59.2,45.4,29.94,SSW,203,0.0,1.3,60,0.00,,,0.00,WSDL version 420,2013-03-01 12:40:00,
2013-03-01 07:45:00,59.2,45.3,29.94,SSW,203,0.0,0.9,60,0.00,,,0.00,WSDL version 420,2013-03-01 12:45:00,
2013-03-01 07:50:00,59.2,45.3,29.94,SSW,203,0.0,0.9,60,0.00,,,0.00,WSDL version 420,2013-03-01 12:50:00,
2013-03-01 07:55:00,59.2,45.3,29.94,North,0,0.0,0.9,60,0.00,,,0.00,WSDL version 420,2013-03-01 12:55:00,
2013-03-01 08:00:00,59.3,45.3,29.94,North,-999,-999.0,-999.0,60,0.00,,,0.00,WSDL version 420,2013-03-01 13:00:00,
2013-03-01 08:05:00,59.4,45.5,29.94,North,-999,-999.0,-999.0,60,0.00,,,0.00,WSDL version 420,2013-03-01 13:05:00,
2013-03-01 08:15:00,59.4,45.5,29.94,North,-999,-999.0,-999.0,60,0.00,,,0.00,WSDL version 420,2013-03-01 13:15:00,
2013-03-01 08:25:00,59.5,46.8,29.94,SSE,158,0.0,0.0,63,0.00,,,0.00,WSDL version 420,2013-03-01 13:25:00,
2013-03-01 08:30:00,59.7,47.0,29.94,SSE,158,0.0,0.0,63,0.00,,,0.00,WSDL version 420,2013-03-01 13:30:00,
2013-03-01 08:35:00,60.2,47.7,29.94,SSE,158,0.0,0.0,63,0.00,,,0.00,WSDL version 420,2013-03-01 13:35:00,
2013-03-01 08:40:00,60.4,47.5,29.94,SSE,158,0.0,0.0,62,0.00,,,0.00,WSDL version 420,2013-03-01 13:40:00,
2013-03-01 08:45:00,60.6,47.0,29.94,North,0,0.0,0.0,61,0.00,,,0.00,WSDL version 420,2013-03-01 13:45:00,
2013-03-01 08:50:00,60.9,46.9,29.94,North,-999,-999.0,-999.0,60,0.00,,,0.00,WSDL version 420,2013-03-01 13:50:00,
2013-03-01 08:55:00,61.0,46.6,29.94,North,-999,-999.0,-999.0,59,0.00,,,0.00,WSDL version 420,2013-03-01 13:55:00,
2013-03-01 09:00:00,61.3,46.9,29.94,West,270,2.0,3.4,58,0.00,,,0.00,WSDL version 420,2013-03-01 14:00:00,
2013-03-01 09:05:00,61.7,46.6,29.94,West,270,2.0,3.4,58,0.00,,,0.00,WSDL version 420,2013-03-01 14:05:00,
2013-03-01 09:10:00,61.9,46.5,29.94,SW,225,0.0,3.4,57,0.00,,,0.00,WSDL version 420,2013-03-01 14:10:00,
2013-03-01 09:20:00,62.2,45.8,29.94,West,278,0.0,1.1,55,0.00,,,0.00,WSDL version 420,2013-03-01 14:20:00,
2013-03-01 09:25:00,62.4,45.5,29.91,NNE,23,0.0,1.1,54,0.00,,,0.00,WSDL version 420,2013-03-01 14:25:00,
2013-03-01 09:30:00,62.6,45.5,29.91,NNE,23,0.0,1.1,53,0.00,,,0.00,WSDL version 420,2013-03-01 14:30:00,
2013-03-01 09:40:00,62.6,45.4,29.91,NW,315,2.0,2.9,54,0.00,,,0.00,WSDL version 420,2013-03-01 14:40:00,
2013-03-01 09:45:00,62.9,45.7,29.91,WSW,248,1.6,2.9,54,0.00,,,0.00,WSDL version 420,2013-03-01 14:45:00,
2013-03-01 09:55:00,63.7,46.7,29.91,North,360,1.6,2.0,53,0.00,,,0.00,WSDL version 420,2013-03-01 14:55:00,
2013-03-01 10:00:00,63.7,45.4,29.91,North,360,1.6,0.0,50,0.00,,,0.00,WSDL version 420,2013-03-01 15:00:00,
2013-03-01 10:05:00,63.4,44.8,29.91,North,360,1.6,0.0,51,0.00,,,0.00,WSDL version 420,2013-03-01 15:05:00,
2013-03-01 10:10:00,64.1,46.4,29.91,SW,225,1.3,0.0,53,0.00,,,0.00,WSDL version 420,2013-03-01 15:10:00,
2013-03-01 10:15:00,64.5,46.1,29.91,NE,45,2.0,2.9,51,0.00,,,0.00,WSDL version 420,2013-03-01 15:15:00,
2013-03-01 10:20:00,65.1,46.9,29.94,NE,45,2.0,2.9,51,0.00,,,0.00,WSDL version 420,2013-03-01 15:20:00,
2013-03-01 10:25:00,65.5,46.9,29.94,ESE,113,2.0,2.9,51,0.00,,,0.00,WSDL version 420,2013-03-01 15:25:00,
2013-03-01 10:35:00,65.7,46.5,29.94,SW,225,0.0,2.2,50,0.00,,,0.00,WSDL version 420,2013-03-01 15:35:00,
2013-03-01 10:40:00,65.4,46.1,29.91,NNE,23,1.3,2.2,49,0.00,,,0.00,WSDL version 420,2013-03-01 15:40:00,
2013-03-01 10:45:00,65.1,45.3,29.91,NNE,23,1.3,2.0,48,0.00,,,0.00,WSDL version 420,2013-03-01 15:45:00,
2013-03-01 10:50:00,64.5,44.2,29.91,SW,233,0.6,1.6,47,0.00,,,0.00,WSDL version 420,2013-03-01 15:50:00,
2013-03-01 10:55:00,64.1,44.3,29.91,West,270,0.4,1.6,49,0.00,,,0.00,WSDL version 420,2013-03-01 15:55:00,
2013-03-01 11:00:00,64.2,44.5,29.91,NW,315,1.3,1.6,49,0.00,,,0.00,WSDL version 420,2013-03-01 16:00:00,
2013-03-01 11:05:00,64.6,45.3,29.91,NW,315,1.3,1.6,50,0.00,,,0.00,WSDL version 420,2013-03-01 16:05:00,
2013-03-01 11:10:00,65.2,45.4,29.91,NW,315,1.3,0.0,49,0.00,,,0.00,WSDL version 420,2013-03-01 16:10:00,
2013-03-01 11:15:00,65.1,45.0,29.91,North,0,0.0,0.0,48,0.00,,,0.00,WSDL version 420,2013-03-01 16:15:00,
2013-03-01 11:20:00,64.8,44.7,29.94,North,0,0.0,0.0,48,0.00,,,0.00,WSDL version 420,2013-03-01 16:20:00,
2013-03-01 11:25:00,65.1,44.6,29.94,NNE,23,2.0,2.5,47,0.00,,,0.00,WSDL version 420,2013-03-01 16:25:00,
2013-03-01 11:30:00,65.1,44.4,29.94,NNE,23,2.0,2.5,47,0.00,,,0.00,WSDL version 420,2013-03-01 16:30:00,
2013-03-01 11:35:00,65.2,44.5,29.94,WSW,248,0.0,2.5,47,0.00,,,0.00,WSDL version 420,2013-03-01 16:35:00,
2013-03-01 11:40:00,65.2,44.4,29.94,SW,225,0.0,2.0,46,0.00,,,0.00,WSDL version 420,2013-03-01 16:40:00,
2013-03-01 11:45:00,65.1,44.4,29.94,West,270,0.0,1.6,47,0.00,,,0.00,WSDL version 420,2013-03-01 16:45:00,
2013-03-01 11:50:00,64.8,44.1,29.94,West,270,0.9,1.6,47,0.00,,,0.00,WSDL version 420,2013-03-01 16:50:00,
2013-03-01 11:55:00,64.8,44.4,29.94,West,270,0.9,1.6,47,0.00,,,0.00,WSDL version 420,2013-03-01 16:55:00,
2013-03-01 12:00:00,65.2,45.0,29.94,WSW,248,1.1,1.1,49,0.00,,,0.00,WSDL version 420,2013-03-01 17:00:00,
2013-03-01 12:05:00,65.7,45.6,29.94,South,180,1.3,3.8,47,0.00,,,0.00,WSDL version 420,2013-03-01 17:05:00,
2013-03-01 12:10:00,65.7,45.1,29.94,South,180,1.3,3.8,48,0.00,,,0.00,WSDL version 420,2013-03-01 17:10:00,
2013-03-01 12:15:00,65.5,44.8,29.94,South,180,1.3,3.8,47,0.00,,,0.00,WSDL version 420,2013-03-01 17:15:00,
2013-03-01 12:20:00,65.5,45.3,29.94,WSW,240,0.4,3.8,48,0.00,,,0.00,WSDL version 420,2013-03-01 17:20:00,
2013-03-01 12:25:00,65.5,45.3,29.94,North,360,1.1,3.8,48,0.00,,,0.00,WSDL version 420,2013-03-01 17:25:00,
2013-03-01 12:30:00,65.4,44.8,29.94,North,360,1.1,1.3,47,0.00,,,0.00,WSDL version 420,2013-03-01 17:30:00,
2013-03-01 12:35:00,65.3,44.6,29.94,North,360,1.1,1.3,47,0.00,,,0.00,WSDL version 420,2013-03-01 17:35:00,
2013-03-01 12:40:00,65.5,45.1,29.94,West,270,0.0,2.0,47,0.00,,,0.00,WSDL version 420,2013-03-01 17:40:00,
2013-03-01 12:45:00,65.5,44.7,29.94,West,270,0.0,2.0,47,0.00,,,0.00,WSDL version 420,2013-03-01 17:45:00,
2013-03-01 12:50:00,65.2,44.3,29.94,West,270,0.0,2.0,47,0.00,,,0.00,WSDL version 420,2013-03-01 17:50:00,
2013-03-01 12:55:00,65.3,44.4,29.94,South,180,0.0,2.0,47,0.00,,,0.00,WSDL version 420,2013-03-01 17:55:00,
2013-03-01 13:00:00,65.1,44.3,29.94,South,180,0.0,2.0,47,0.00,,,0.00,WSDL version 420,2013-03-01 18:00:00,
2013-03-01 13:05:00,65.1,44.4,29.91,South,180,0.0,0.0,47,0.00,,,0.00,WSDL version 420,2013-03-01 18:05:00,
2013-03-01 13:15:00,65.7,45.3,29.91,North,0,0.0,0.0,48,0.00,,,0.00,WSDL version 420,2013-03-01 18:15:00,
2013-03-01 13:25:00,66.6,46.3,29.91,SSE,158,0.0,0.0,48,0.00,,,0.00,WSDL version 420,2013-03-01 18:25:00,
2013-03-01 13:30:00,66.7,46.4,29.91,South,188,0.7,1.6,48,0.00,,,0.00,WSDL version 420,2013-03-01 18:30:00,
2013-03-01 13:35:00,66.7,46.4,29.85,North,0,0.0,1.6,48,0.00,,,0.00,WSDL version 420,2013-03-01 18:35:00,
2013-03-01 13:40:00,66.7,46.1,29.85,SSW,203,1.1,1.6,47,0.00,,,0.00,WSDL version 420,2013-03-01 18:40:00,
2013-03-01 13:45:00,66.9,46.5,29.85,SSW,203,1.1,1.6,48,0.00,,,0.00,WSDL version 420,2013-03-01 18:45:00,
2013-03-01 13:50:00,67.3,46.3,29.85,North,0,0.0,1.6,46,0.00,,,0.00,WSDL version 420,2013-03-01 18:50:00,
2013-03-01 13:55:00,67.5,45.8,29.91,North,-999,-999.0,-999.0,45,0.00,,,0.00,WSDL version 420,2013-03-01 18:55:00,
2013-03-01 14:00:00,67.6,45.6,29.91,North,-999,-999.0,-999.0,45,0.00,,,0.00,WSDL version 420,2013-03-01 19:00:00,
2013-03-01 14:05:00,67.3,44.0,29.88,SSW,203,1.1,0.0,44,0.00,,,0.00,WSDL version 420,2013-03-01 19:05:00,
2013-03-01 14:10:00,67.3,44.4,29.88,SSW,203,1.1,0.0,44,0.00,,,0.00,WSDL version 420,2013-03-01 19:10:00,
2013-03-01 14:15:00,67.5,44.0,29.88,SSW,203,1.1,0.0,42,0.00,,,0.00,WSDL version 420,2013-03-01 19:15:00,
2013-03-01 14:20:00,67.3,43.8,29.88,North,0,0.0,0.0,43,0.00,,,0.00,WSDL version 420,2013-03-01 19:20:00,
2013-03-01 14:25:00,67.1,43.8,29.88,North,0,0.0,0.0,43,0.00,,,0.00,WSDL version 420,2013-03-01 19:25:00,
2013-03-01 14:35:00,67.0,43.8,29.88,WSW,248,1.3,1.3,43,0.00,,,0.00,WSDL version 420,2013-03-01 19:35:00,
2013-03-01 14:40:00,67.0,43.6,29.88,WSW,248,1.3,1.3,42,0.00,,,0.00,WSDL version 420,2013-03-01 19:40:00,
2013-03-01 14:45:00,67.2,42.9,29.88,North,0,0.0,1.3,40,0.00,,,0.00,WSDL version 420,2013-03-01 19:45:00,
2013-03-01 14:50:00,67.4,42.9,29.88,NW,315,1.1,1.3,41,0.00,,,0.00,WSDL version 420,2013-03-01 19:50:00,
2013-03-01 14:55:00,67.3,42.4,29.88,NW,315,1.1,1.3,39,0.00,,,0.00,WSDL version 420,2013-03-01 19:55:00,
2013-03-01 15:00:00,67.0,41.6,29.88,NW,315,1.1,1.3,39,0.00,,,0.00,WSDL version 420,2013-03-01 20:00:00,
2013-03-01 15:05:00,66.9,42.0,29.88,North,0,0.0,1.3,40,0.00,,,0.00,WSDL version 420,2013-03-01 20:05:00,
2013-03-01 15:10:00,66.8,41.8,29.88,North,0,0.0,1.3,39,0.00,,,0.00,WSDL version 420,2013-03-01 20:10:00,
2013-03-01 15:15:00,66.8,42.0,29.88,North,-999,-999.0,-999.0,41,0.00,,,0.00,WSDL version 420,2013-03-01 20:15:00,
2013-03-01 15:20:00,66.7,42.3,29.88,North,0,0.0,0.9,41,0.00,,,0.00,WSDL version 420,2013-03-01 20:20:00,
2013-03-01 15:25:00,66.6,42.8,29.88,SSW,203,0.9,0.9,42,0.00,,,0.00,WSDL version 420,2013-03-01 20:25:00,
2013-03-01 15:30:00,66.4,42.6,29.88,SSW,203,0.9,0.9,42,0.00,,,0.00,WSDL version 420,2013-03-01 20:30:00,
2013-03-01 15:35:00,66.2,43.0,29.88,North,0,0.0,0.9,43,0.00,,,0.00,WSDL version 420,2013-03-01 20:35:00,
2013-03-01 15:40:00,65.8,42.3,29.88,North,0,0.0,0.9,43,0.00,,,0.00,WSDL version 420,2013-03-01 20:40:00,
2013-03-01 15:45:00,65.5,42.1,29.88,North,-999,-999.0,-999.0,43,0.00,,,0.00,WSDL version 420,2013-03-01 20:45:00,
2013-03-01 15:50:00,64.9,40.8,29.88,North,-999,-999.0,-999.0,42,0.00,,,0.00,WSDL version 420,2013-03-01 20:50:00,
2013-03-01 15:55:00,64.8,41.6,29.88,North,-999,-999.0,-999.0,43,0.00,,,0.00,WSDL version 420,2013-03-01 20:55:00,
2013-03-01 16:00:00,64.6,41.4,29.88,North,-999,-999.0,-999.0,42,0.00,,,0.00,WSDL version 420,2013-03-01 21:00:00,
2013-03-01 16:05:00,64.3,40.9,29.88,South,180,1.1,1.1,42,0.00,,,0.00,WSDL version 420,2013-03-01 21:05:00,
2013-03-01 16:10:00,64.0,41.1,29.88,South,180,1.1,1.1,43,0.00,,,0.00,WSDL version 420,2013-03-01 21:10:00,
2013-03-01 16:15:00,63.9,41.3,29.88,SSW,203,1.3,1.3,44,0.00,,,0.00,WSDL version 420,2013-03-01 21:15:00,
2013-03-01 16:20:00,64.0,41.7,29.88,SSW,203,1.3,1.3,44,0.00,,,0.00,WSDL version 420,2013-03-01 21:20:00,
2013-03-01 16:25:00,63.9,41.5,29.88,SSW,203,1.3,1.3,44,0.00,,,0.00,WSDL version 420,2013-03-01 21:25:00,
2013-03-01 16:30:00,63.6,41.3,29.88,WSW,248,2.2,2.2,44,0.00,,,0.00,WSDL version 420,2013-03-01 21:30:00,
2013-03-01 16:40:00,63.5,41.8,29.88,WSW,248,2.2,2.2,45,0.00,,,0.00,WSDL version 420,2013-03-01 21:40:00,
2013-03-01 16:45:00,63.5,42.4,29.88,North,0,0.0,0.9,46,0.00,,,0.00,WSDL version 420,2013-03-01 21:45:00,
2013-03-01 16:50:00,63.3,42.2,29.85,North,-999,-999.0,-999.0,46,0.00,,,0.00,WSDL version 420,2013-03-01 21:50:00,
2013-03-01 16:56:00,63.2,42.1,29.85,North,-999,-999.0,-999.0,46,0.00,,,0.00,WSDL version 420,2013-03-01 21:56:00,
2013-03-01 17:01:00,63.1,42.0,29.85,North,-999,-999.0,-999.0,46,0.00,,,0.00,WSDL version 420,2013-03-01 22:01:00,
2013-03-01 17:06:00,63.0,41.9,29.85,North,-999,-999.0,-999.0,46,0.00,,,0.00,WSDL version 420,2013-03-01 22:06:00,
2013-03-01 17:11:00,62.8,41.9,29.85,South,180,0.0,0.0,47,0.00,,,0.00,WSDL version 420,2013-03-01 22:11:00,
2013-03-01 17:16:00,62.8,42.3,29.85,South,180,0.0,0.0,47,0.00,,,0.00,WSDL version 420,2013-03-01 22:16:00,
2013-03-01 17:21:00,62.6,42.1,29.88,North,0,0.0,0.0,47,0.00,,,0.00,WSDL version 420,2013-03-01 22:21:00,
2013-03-01 17:26:00,62.5,42.5,29.88,South,180,0.0,0.0,48,0.00,,,0.00,WSDL version 420,2013-03-01 22:26:00,
2013-03-01 17:31:00,62.3,42.4,29.88,South,180,0.0,0.0,48,0.00,,,0.00,WSDL version 420,2013-03-01 22:31:00,
2013-03-01 17:36:00,62.1,42.8,29.88,North,0,0.0,0.0,49,0.00,,,0.00,WSDL version 420,2013-03-01 22:36:00,
2013-03-01 17:41:00,62.0,42.7,29.88,North,0,0.0,0.0,49,0.00,,,0.00,WSDL version 420,2013-03-01 22:41:00,
2013-03-01 17:46:00,61.9,43.1,29.88,North,-999,-999.0,-999.0,50,0.00,,,0.00,WSDL version 420,2013-03-01 22:46:00,
2013-03-01 17:51:00,61.8,43.5,29.88,North,-999,-999.0,-999.0,51,0.00,,,0.00,WSDL version 420,2013-03-01 22:51:00,
2013-03-01 17:56:00,61.6,43.7,29.88,North,-999,-999.0,-999.0,51,0.00,,,0.00,WSDL version 420,2013-03-01 22:56:00,
2013-03-01 18:01:00,61.5,44.2,29.88,North,-999,-999.0,-999.0,53,0.00,,,0.00,WSDL version 420,2013-03-01 23:01:00,
2013-03-01 18:06:00,61.3,44.1,29.88,North,-999,-999.0,-999.0,53,0.00,,,0.00,WSDL version 420,2013-03-01 23:06:00,
2013-03-01 18:11:00,61.0,43.9,29.88,North,-999,-999.0,-999.0,53,0.00,,,0.00,WSDL version 420,2013-03-01 23:11:00,
2013-03-01 18:16:00,60.9,43.6,29.88,North,-999,-999.0,-999.0,53,0.00,,,0.00,WSDL version 420,2013-03-01 23:16:00,
2013-03-01 18:21:00,60.8,44.1,29.88,North,-999,-999.0,-999.0,54,0.00,,,0.00,WSDL version 420,2013-03-01 23:21:00,
2013-03-01 18:26:00,60.8,44.1,29.88,North,-999,-999.0,-999.0,55,0.00,,,0.00,WSDL version 420,2013-03-01 23:26:00,
2013-03-01 18:31:00,60.6,44.4,29.88,North,-999,-999.0,-999.0,55,0.00,,,0.00,WSDL version 420,2013-03-01 23:31:00,
2013-03-01 18:36:00,60.4,44.2,29.88,North,-999,-999.0,-999.0,55,0.00,,,0.00,WSDL version 420,2013-03-01 23:36:00,
2013-03-01 18:41:00,60.4,44.5,29.88,North,-999,-999.0,-999.0,56,0.00,,,0.00,WSDL version 420,2013-03-01 23:41:00,
2013-03-01 18:46:00,60.2,44.6,29.88,North,-999,-999.0,-999.0,56,0.00,,,0.00,WSDL version 420,2013-03-01 23:46:00,
2013-03-01 18:51:00,60.1,44.5,29.88,North,-999,-999.0,-999.0,56,0.00,,,0.00,WSDL version 420,2013-03-01 23:51:00,
2013-03-01 18:56:00,60.1,44.4,29.91,North,-999,-999.0,-999.0,56,0.00,,,0.00,WSDL version 420,2013-03-01 23:56:00,
2013-03-01 19:01:00,60.1,44.4,29.91,North,-999,-999.0,-999.0,56,0.00,,,0.00,WSDL version 420,2013-03-02 00:01:00,
2013-03-01 19:06:00,60.1,44.4,29.91,North,-999,-999.0,-999.0,56,0.00,,,0.00,WSDL version 420,2013-03-02 00:06:00,
2013-03-01 19:11:00,60.1,44.0,29.91,North,-999,-999.0,-999.0,55,0.00,,,0.00,WSDL version 420,2013-03-02 00:11:00,
2013-03-01 19:16:00,60.3,43.7,29.91,North,-999,-999.0,-999.0,54,0.00,,,0.00,WSDL version 420,2013-03-02 00:16:00,
2013-03-01 19:21:00,60.3,43.4,29.91,North,-999,-999.0,-999.0,53,0.00,,,0.00,WSDL version 420,2013-03-02 00:21:00,
2013-03-01 19:26:00,60.3,43.1,29.91,North,-999,-999.0,-999.0,53,0.00,,,0.00,WSDL version 420,2013-03-02 00:26:00,
2013-03-01 19:31:00,60.3,42.8,29.91,North,-999,-999.0,-999.0,52,0.00,,,0.00,WSDL version 420,2013-03-02 00:31:00,
2013-03-01 19:36:00,60.3,42.1,29.91,North,-999,-999.0,-999.0,51,0.00,,,0.00,WSDL version 420,2013-03-02 00:36:00,
2013-03-01 19:41:00,60.3,41.6,29.91,North,-999,-999.0,-999.0,50,0.00,,,0.00,WSDL version 420,2013-03-02 00:41:00,
2013-03-01 19:46:00,60.3,41.6,29.91,North,-999,-999.0,-999.0,50,0.00,,,0.00,WSDL version 420,2013-03-02 00:46:00,
2013-03-01 19:51:00,60.1,41.4,29.91,North,-999,-999.0,-999.0,50,0.00,,,0.00,WSDL version 420,2013-03-02 00:51:00,
2013-03-01 19:56:00,60.1,41.4,29.94,North,-999,-999.0,-999.0,50,0.00,,,0.00,WSDL version 420,2013-03-02 00:56:00,
2013-03-01 20:01:00,60.0,41.4,29.94,WSW,248,0.0,0.0,50,0.00,,,0.00,WSDL version 420,2013-03-02 01:01:00,
2013-03-01 20:06:00,59.9,41.2,29.94,WSW,248,0.0,0.0,50,0.00,,,0.00,WSDL version 420,2013-03-02 01:06:00,
2013-03-01 20:11:00,59.8,41.6,29.94,SW,225,0.0,0.0,51,0.00,,,0.00,WSDL version 420,2013-03-02 01:11:00,
2013-03-01 20:16:00,59.7,41.7,29.94,SW,225,0.0,0.0,52,0.00,,,0.00,WSDL version 420,2013-03-02 01:16:00,
2013-03-01 20:21:00,59.6,41.9,29.94,SW,225,0.0,0.0,52,0.00,,,0.00,WSDL version 420,2013-03-02 01:21:00,
2013-03-01 20:26:00,59.4,41.4,29.94,SW,225,0.0,0.0,51,0.00,,,0.00,WSDL version 420,2013-03-02 01:26:00,
2013-03-01 20:31:00,59.4,41.2,29.94,SW,225,0.0,0.0,51,0.00,,,0.00,WSDL version 420,2013-03-02 01:31:00,
2013-03-01 20:36:00,59.4,41.2,29.94,North,0,0.0,0.0,51,0.00,,,0.00,WSDL version 420,2013-03-02 01:36:00,
2013-03-01 20:41:00,59.2,41.1,29.94,North,0,0.0,0.0,51,0.00,,,0.00,WSDL version 420,2013-03-02 01:41:00,
2013-03-01 20:46:00,59.2,41.1,29.94,North,-999,-999.0,-999.0,51,0.00,,,0.00,WSDL version 420,2013-03-02 01:46:00,
2013-03-01 20:51:00,59.2,41.1,29.91,North,-999,-999.0,-999.0,51,0.00,,,0.00,WSDL version 420,2013-03-02 01:51:00,
2013-03-01 20:56:00,59.2,41.3,29.91,WSW,248,0.0,0.0,52,0.00,,,0.00,WSDL version 420,2013-03-02 01:56:00,
2013-03-01 21:01:00,59.0,41.5,29.91,WSW,248,0.0,0.0,52,0.00,,,0.00,WSDL version 420,2013-03-02 02:01:00,
2013-03-01 21:06:00,59.0,41.1,29.94,WSW,248,0.0,0.0,51,0.00,,,0.00,WSDL version 420,2013-03-02 02:06:00,
2013-03-01 21:11:00,59.0,41.0,29.94,WSW,248,0.0,0.0,51,0.00,,,0.00,WSDL version 420,2013-03-02 02:11:00,
2013-03-01 21:16:00,59.0,40.9,29.94,South,180,0.0,0.0,51,0.00,,,0.00,WSDL version 420,2013-03-02 02:16:00,
2013-03-01 21:21:00,59.0,40.9,29.94,South,180,0.0,0.0,51,0.00,,,0.00,WSDL version 420,2013-03-02 02:21:00,
2013-03-01 21:26:00,58.9,41.0,29.94,South,180,0.0,0.0,52,0.00,,,0.00,WSDL version 420,2013-03-02 02:26:00,
2013-03-01 21:31:00,58.8,41.1,29.94,South,180,0.0,0.0,52,0.00,,,0.00,WSDL version 420,2013-03-02 02:31:00,
2013-03-01 21:36:00,58.8,41.1,29.94,North,0,0.0,0.0,51,0.00,,,0.00,WSDL version 420,2013-03-02 02:36:00,
2013-03-01 21:41:00,58.6,40.6,29.94,North,0,0.0,0.0,51,0.00,,,0.00,WSDL version 420,2013-03-02 02:41:00,
2013-03-01 21:46:00,58.7,40.8,29.94,North,-999,-999.0,-999.0,52,0.00,,,0.00,WSDL version 420,2013-03-02 02:46:00,
2013-03-01 21:51:00,58.6,41.0,29.94,North,-999,-999.0,-999.0,52,0.00,,,0.00,WSDL version 420,2013-03-02 02:51:00,
2013-03-01 21:56:00,58.5,40.9,29.94,North,-999,-999.0,-999.0,52,0.00,,,0.00,WSDL version 420,2013-03-02 02:56:00,
2013-03-01 22:01:00,58.5,40.9,29.94,North,-999,-999.0,-999.0,52,0.00,,,0.00,WSDL version 420,2013-03-02 03:01:00,
2013-03-01 22:06:00,58.5,41.3,29.94,North,-999,-999.0,-999.0,53,0.00,,,0.00,WSDL version 420,2013-03-02 03:06:00,
2013-03-01 22:11:00,58.3,41.4,29.94,SSE,158,0.0,0.0,54,0.00,,,0.00,WSDL version 420,2013-03-02 03:11:00,
2013-03-01 22:16:00,58.3,41.6,29.94,SSE,158,0.0,0.0,53,0.00,,,0.00,WSDL version 420,2013-03-02 03:16:00,
2013-03-01 22:21:00,58.3,41.6,29.94,SSE,158,0.0,0.0,54,0.00,,,0.00,WSDL version 420,2013-03-02 03:21:00,
2013-03-01 22:26:00,58.2,41.8,29.94,South,180,0.0,0.0,55,0.00,,,0.00,WSDL version 420,2013-03-02 03:26:00,
2013-03-01 22:31:00,58.1,41.7,29.94,South,180,0.0,0.0,54,0.00,,,0.00,WSDL version 420,2013-03-02 03:31:00,
2013-03-01 22:36:00,58.1,42.0,29.94,WSW,248,0.0,0.0,55,0.00,,,0.00,WSDL version 420,2013-03-02 03:36:00,
2013-03-01 22:41:00,58.1,42.3,29.94,North,0,0.0,0.0,55,0.00,,,0.00,WSDL version 420,2013-03-02 03:41:00,
2013-03-01 22:46:00,57.9,42.0,29.94,WSW,248,0.0,0.0,56,0.00,,,0.00,WSDL version 420,2013-03-02 03:46:00,
2013-03-01 22:51:00,57.9,42.5,29.94,WSW,248,0.0,0.0,57,0.00,,,0.00,WSDL version 420,2013-03-02 03:51:00,
2013-03-01 22:56:00,57.9,42.8,29.94,North,0,0.0,0.0,57,0.00,,,0.00,WSDL version 420,2013-03-02 03:56:00,
2013-03-01 23:01:00,57.9,43.1,29.94,North,-999,-999.0,-999.0,58,0.00,,,0.00,WSDL version 420,2013-03-02 04:01:00,
2013-03-01 23:06:00,57.7,43.2,29.94,North,-999,-999.0,-999.0,59,0.00,,,0.00,WSDL version 420,2013-03-02 04:06:00,
2013-03-01 23:11:00,57.7,43.4,29.94,North,-999,-999.0,-999.0,58,0.00,,,0.00,WSDL version 420,2013-03-02 04:11:00,
2013-03-01 23:16:00,57.7,43.4,29.94,North,-999,-999.0,-999.0,59,0.00,,,0.00,WSDL version 420,2013-03-02 04:16:00,
2013-03-01 23:21:00,57.6,43.6,29.94,North,-999,-999.0,-999.0,60,0.00,,,0.00,WSDL version 420,2013-03-02 04:21:00,
2013-03-01 23:26:00,57.6,43.8,29.94,North,-999,-999.0,-999.0,60,0.00,,,0.00,WSDL version 420,2013-03-02 04:26:00,
2013-03-01 23:31:00,57.6,43.6,29.94,North,-999,-999.0,-999.0,59,0.00,,,0.00,WSDL version 420,2013-03-02 04:31:00,
2013-03-01 23:36:00,57.6,43.8,29.94,SSW,203,0.0,0.0,60,0.00,,,0.00,WSDL version 420,2013-03-02 04:36:00,
2013-03-01 23:41:00,57.6,44.2,29.94,SSW,203,0.0,0.0,61,0.00,,,0.00,WSDL version 420,2013-03-02 04:41:00,
2013-03-01 23:46:00,57.6,44.3,29.94,SSW,203,0.0,0.0,61,0.00,,,0.00,WSDL version 420,2013-03-02 04:46:00,
2013-03-01 23:51:00,57.5,44.6,29.91,South,180,0.0,0.0,62,0.00,,,0.00,WSDL version 420,2013-03-02 04:51:00,
2013-03-01 23:56:00,57.3,44.5,29.91,South,180,0.0,0.0,63,0.00,,,0.00,WSDL version 420,2013-03-02 04:56:00,